Current weather by "City, St" or "zip code"  
 
Advertise Here

Current Conditions: Newport, Newport State Airport, RI

Partly Cloudy


40.0 F

Last Updated on Jan 17 2021, 10:53 pm EST
Humidity: 63%
Wind Speed: SW 6.9 mph
Barometer 29.65 in
Dewpoint: 28.0 F
Visibility: 10.00 mi
Precip: --
Heat Index: NA
Wind Chill: 35 F
Current conditions at:

Newport, Newport State Airport, RI (KUUU)

Lat: 41.53 Lon: 71.28361

Local Radar Image active severe weather and emergency alerts image image weather storm and storm spotter reports image weather observation monitoring service image
Local
Radar
Active
Alerts
Storm Reports Obs
Monitoring

Sign-up For Email & Text Message Weather Alert Notification Services


Advertise Here

Observation History for Newport, Newport State Airport, RI


Time Wind
(mph)
Vis
(mi)
Weather Precip (in) Temperature (F) Relative
Humidity
Wind
Chill
(F)
Heat
Index
(F)
Pressure
Air Dwpt altimeter
(in)
sea level
(mb)
Rmks
10:53 pm EST SW 6.9 10.00 Partly Cloudy -- 40.0 28.0 63% 35 NA 29.65 1004.1
9:53 pm EST 4.6 10.00 Overcast -- 41.0 28.9 62% 38 NA 29.66 1004.2
8:53 pm EST 4.6 10.00 Mostly Cloudy -- 40.0 26.1 58% 37 NA 29.65 1004.0
7:53 pm EST 6.9 10.00 Overcast -- 40.0 26.1 58% 35 NA 29.64 1003.8
6:53 pm EST W 5.8 10.00 Overcast -- 40.0 26.1 58% 36 NA 29.63 1003.2
5:53 pm EST 6.9 10.00 Mostly Cloudy -- 40.0 25.0 55% 35 NA 29.60 1002.3
4:53 pm EST W 8.1 G 21.9 10.00 A Few Clouds -- 41.0 24.1 51% 36 NA 29.57 1001.2
3:53 pm EST W 8.1 G 24.2 10.00 Mostly Cloudy -- 42.0 24.1 49% 37 NA 29.54 1000.4
2:53 pm EST W 10.4 G 20.7 10.00 Mostly Cloudy -- 43.0 24.1 47% 37 NA 29.51 999.3
1:53 pm EST W 12.7 G 24.2 10.00 Partly Cloudy -- 44.0 25.0 47% 38 NA 29.49 998.8
12:53 pm EST W 8.1 G 20.7 10.00 A Few Clouds -- 42.0 25.0 51% 37 NA 29.48 998.3
11:53 am EST 6.9 G 20.7 10.00 Fair -- 42.0 25.0 51% 38 NA 29.49 998.4
10:53 am EST SW 10.4 G 21.9 10.00 Fair -- 41.0 24.1 51% 35 NA 29.50 998.8
9:53 am EST W 12.7 G 20.7 10.00 Fair -- 39.0 24.1 55% 31 NA 29.50 999.1
8:53 am EST W 11.5 G 25.3 10.00 Fair -- 37.0 24.1 59% 29 NA 29.49 998.5
7:53 am EST W 10.4 G 26.5 10.00 Fair -- 36.0 25.0 64% 28 NA 29.47 998.0
6:53 am EST W 10.4 G 20.7 10.00 Fair -- 35.0 25.0 67% 27 NA 29.45 997.2
5:53 am EST W 8.1 G 19.6 10.00 Fair -- 35.0 25.0 67% 28 NA 29.43 996.7
4:53 am EST W 8.1 G 21.9 10.00 Fair -- 34.0 26.1 73% 27 NA 29.42 996.1
3:53 am EST 6.9 G 18.4 10.00 Fair -- 34.0 26.1 73% 28 NA 29.40 995.6
2:53 am EST W 8.1 10.00 Fair -- 34.0 26.1 73% 27 NA 29.39 995.3
1:53 am EST W 9.2 10.00 Fair -- 35.0 28.0 76% 28 NA 29.37 994.4
12:53 am EST 6.9 10.00 Fair -- 35.0 28.9 78% 29 NA 29.34 993.4
11:53 pm EST W 8.1 G 17.3 10.00 Fair -- 36.0 28.9 76% 30 NA 29.30 992.0

Regional Weather Observation


Providence, Theodore Francis Green State Airport, RI (KPVD)

Partly Cloudy
40.0 F

N. Kingston / Quonset, RI (KOQU)

Mostly Cloudy
43.0 F

Taunton, Taunton Municipal Airport, MA (KTAN)

Fair
40.0 F

Newport, Newport State Airport, RI (KUUU)

Partly Cloudy
40.0 F

Westerly, Westerly State Airport, RI (KWST)

Mostly Cloudy
40.0 F

Block Island State Airport, RI (KBID)

Mostly Cloudy
41.0 F